Weather History for New Orleans Lakefront, LA

Change the Weather History Date:

Friday, May 10, 2013

  Actual Average Record
Temperature  
Mean Temperature 69 °F 75 °F  
Max Temperature 74 °F 84 °F 90 °F (2002)
Min Temperature 63 °F 67 °F 51 °F (1969)
Degree Days  
Heating Degree Days 0 0  
Month to date heating degree days 16 0  
Since 1 July heating degree days 1146 1279  
Cooling Degree Days 4 10  
Month to date cooling degree days 38 92  
Year to date cooling degree days 242 349  
Growing Degree Days 20 (Base 50)    
Moisture  
Dew Point 66 °F    
Average Humidity 89    
Maximum Humidity 93    
Minimum Humidity 84    
Precipitation  
Precipitation 2.31 in 0.13 in 2.43 in (1995)
Month to date precipitation 3.65 1.43  
Year to date precipitation 30.15 21.04  
Snow  
Snow 0.00 in - - ()
Month to date snowfall 0.0  
Since 1 July snowfall 0.0  
Snow Depth 0.00 in    
Sea Level Pressure  
Sea Level Pressure 30.01 in    
Wind  
Wind Speed 8 mph (SSE)    
Max Wind Speed 35 mph    
Max Gust Speed 43 mph    
Visibility 7 miles    
Events Fog , Rain    
T = Trace of Precipitation, MM = Missing Value Source: NWS Daily Summary

Daily Weather History Graph

Daily Weather History Graph

Search for Another Location

Airport:

Trip Planner

Search our weather history database for the weather conditions in past years. The results will help you decide how hot, cold, wet, or windy it might be!

Date:

Astronomy

May. 10, 2013 Rise Set
Actual Time 6:09 AM CDT 7:43 PM CDT
Civil Twilight 5:43 AM CDT 8:09 PM CDT
Nautical Twilight 5:12 AM CDT 8:40 PM CDT
Astronomical Twilight 4:40 AM CDT 9:13 PM CDT
Moon 6:34 AM CDT (5/10) 8:31 PM CDT (5/10)
Length of Visible Light 14h 25m
Length of Day
13h 33m
New Moon, 0% of the Moon is Illuminated
May 10
New Moon
May 17
First Quarter
May 24
Full
May 31
Last Quarter
Jun 8
New

Hourly Weather History & Observations

Time (CDT) Temp. Dew Point Humidity Pressure Visibility Wind Dir Wind Speed Gust Speed Precip Events Conditions
12:02 AM 73.4 °F 68.0 °F 83% 30.06 in 10.0 mi SE 10.4 mph - N/A   Scattered Clouds
12:48 AM 73.4 °F 68.0 °F 83% 30.03 in 10.0 mi SSE 12.7 mph - N/A   Mostly Cloudy
12:53 AM 73.0 °F 68.0 °F 84% 30.01 in 10.0 mi SE 11.5 mph - N/A   Mostly Cloudy
1:51 AM 73.4 °F 68.0 °F 83% 30.00 in 10.0 mi SSE 12.7 mph - N/A   Scattered Clouds
1:53 AM 73.0 °F 68.0 °F 84% 29.98 in 10.0 mi SSE 13.8 mph - N/A   Mostly Cloudy
2:07 AM 73.4 °F 68.0 °F 83% 29.98 in 10.0 mi SE 15.0 mph - N/A   Scattered Clouds
2:53 AM 73.0 °F 68.0 °F 84% 29.95 in 10.0 mi SSE 13.8 mph - N/A   Partly Cloudy
3:25 AM 73.4 °F 68.0 °F 83% 29.98 in 10.0 mi SSE 10.4 mph - N/A   Mostly Cloudy
3:53 AM 73.9 °F 69.1 °F 85% 29.97 in 10.0 mi SSE 10.4 mph - N/A   Overcast
4:24 AM 73.4 °F 69.8 °F 88% 29.98 in 10.0 mi SSE 11.5 mph - N/A   Overcast
4:45 AM 73.4 °F 69.8 °F 88% 29.97 in 10.0 mi SE 12.7 mph - N/A   Overcast
4:53 AM 73.9 °F 69.1 °F 85% 29.94 in 10.0 mi SE 10.4 mph - N/A   Mostly Cloudy
5:05 AM 73.4 °F 69.8 °F 88% 29.94 in 10.0 mi SE 15.0 mph - N/A   Mostly Cloudy
5:42 AM 73.4 °F 69.8 °F 88% 29.93 in 10.0 mi SE 16.1 mph - N/A   Mostly Cloudy
5:53 AM 73.0 °F 69.1 °F 87% 29.93 in 10.0 mi SSE 15.0 mph - N/A   Mostly Cloudy
6:40 AM 73.4 °F 69.8 °F 88% 29.92 in 9.0 mi SE 18.4 mph 26.5 mph 0.00 in Rain Light Rain
6:53 AM 73.0 °F 69.1 °F 87% 29.94 in 10.0 mi SSE 19.6 mph 26.5 mph 0.00 in Rain Light Rain
6:59 AM 73.4 °F 69.8 °F 88% 29.97 in 7.0 mi SSE 21.9 mph 25.3 mph 0.00 in Rain Light Rain
7:06 AM 73.4 °F 69.8 °F 88% 30.01 in 3.0 mi South 17.3 mph 25.3 mph 0.00 in Rain Light Rain
7:11 AM 71.6 °F 66.2 °F 83% 30.07 in 2.5 mi WNW 39.1 mph 46.0 mph 0.04 in Rain Light Rain
7:13 AM 69.8 °F 64.4 °F 83% 30.08 in 1.0 mi WNW 41.4 mph 52.9 mph 0.18 in Rain Heavy Rain
7:18 AM 66.2 °F 64.4 °F 94% 30.08 in 0.2 mi NNW 31.1 mph 52.9 mph 0.49 in Fog , Rain Heavy Rain
7:20 AM 66.2 °F 64.4 °F 94% 30.08 in 0.2 mi NNW 26.5 mph 52.9 mph 0.56 in Fog , Rain Heavy Rain
7:26 AM 66.2 °F 64.4 °F 94% 30.09 in 0.8 mi NNW 26.5 mph 39.1 mph 0.69 in Rain Heavy Rain
7:33 AM 66.2 °F 64.4 °F 94% 30.08 in 1.2 mi NW 21.9 mph 33.4 mph 0.78 in Rain Heavy Rain
7:49 AM 66.2 °F 64.4 °F 94% 30.09 in 2.0 mi North 18.4 mph - 0.93 in Rain Heavy Rain
7:53 AM 66.9 °F 64.9 °F 93% 30.07 in 2.5 mi North 18.4 mph - 0.95 in Rain Heavy Rain
8:53 AM 66.9 °F 64.0 °F 90% 30.04 in 5.0 mi ENE 17.3 mph - 0.30 in Rain Rain
9:17 AM 66.2 °F 64.4 °F 94% 30.05 in 6.0 mi East 17.3 mph 27.6 mph 0.07 in Rain Rain
9:53 AM 66.9 °F 63.0 °F 87% 30.05 in 8.0 mi ESE 13.8 mph 26.5 mph 0.11 in Rain Light Rain
10:32 AM 68.0 °F 64.4 °F 88% 30.09 in 10.0 mi ENE 13.8 mph - 0.00 in   Mostly Cloudy
10:53 AM 68.0 °F 64.0 °F 87% 30.06 in 10.0 mi East 12.7 mph - 0.00 in Rain Light Rain
11:53 AM 69.8 °F 64.4 °F 83% 30.06 in 10.0 mi SE 8.1 mph - N/A   Overcast
12:53 PM 71.1 °F 64.9 °F 81% 30.01 in 10.0 mi SSE 13.8 mph - N/A   Clear
1:53 PM 69.1 °F 64.0 °F 84% 30.02 in 10.0 mi South 15.0 mph - N/A   Mostly Cloudy
2:53 PM 68.0 °F 64.0 °F 87% 29.98 in 10.0 mi South 11.5 mph - 0.00 in   Mostly Cloudy
3:53 PM 68.0 °F 64.9 °F 90% 29.98 in 4.0 mi SSW 6.9 mph - 0.04 in Rain Light Rain
4:53 PM 68.0 °F 64.9 °F 90% 29.99 in 4.0 mi West 8.1 mph - 0.09 in Rain Light Rain
5:53 PM 66.9 °F 64.0 °F 90% 30.05 in 1.8 mi West 6.9 mph - 0.29 in Rain Rain
6:15 PM 66.2 °F 62.6 °F 88% 30.02 in 3.0 mi ESE 5.8 mph - 0.09 in Rain Rain
6:53 PM 66.9 °F 64.0 °F 90% 29.91 in 4.0 mi East 16.1 mph 23.0 mph 0.20 in Rain Light Rain
7:53 PM 66.9 °F 63.0 °F 87% 29.93 in 9.0 mi SSE 6.9 mph - 0.01 in   Clear
8:53 PM 66.0 °F 62.1 °F 87% 29.95 in 10.0 mi South 11.5 mph - N/A   Clear
9:53 PM 66.0 °F 63.0 °F 90% 29.97 in 10.0 mi South 8.1 mph - N/A   Clear
10:53 PM 66.9 °F 63.0 °F 87% 29.98 in 10.0 mi SW 5.8 mph - N/A   Clear
11:53 PM 68.0 °F 64.0 °F 87% 29.99 in 10.0 mi West 5.8 mph - N/A   Clear